| time (UTC) | temp F | wind direction | speed MPH | gust MPH | rain 1hr in | rain 24hr in | rain mn in | humidity % | barometer mb |
| 20260903215948 | 57 | 360 | 1.0 | 8.0 | 0.00 | 0.37 | 0.26 | 90 | 1009.1 |
| 20260903215448 | 57 | 360 | 5.0 | 8.0 | 0.01 | 0.39 | 0.26 | 91 | 1009.1 |
| 20260903214948 | 57 | 360 | 0.0 | 6.0 | 0.01 | 0.40 | 0.26 | 91 | 1009.1 |
| 20260903214448 | 57 | 360 | 5.0 | 6.0 | 0.01 | 0.40 | 0.26 | 92 | 1009.1 |
| 20260903213948 | 57 | 360 | 0.0 | 5.0 | 0.01 | 0.41 | 0.26 | 92 | 1009.2 |
| 20260903213448 | 56 | 360 | 4.0 | 7.0 | 0.01 | 0.42 | 0.26 | 92 | 1009.2 |
| 20260903212948 | 56 | 360 | 1.0 | 7.0 | 0.01 | 0.42 | 0.26 | 92 | 1009.2 |
| 20260903212448 | 56 | 360 | 1.0 | 5.0 | 0.01 | 0.42 | 0.26 | 92 | 1009.0 |
| 20260903211948 | 56 | 221 | 2.0 | 3.0 | 0.02 | 0.42 | 0.26 | 93 | 1009.0 |
| 20260903211448 | 56 | 236 | 1.0 | 3.0 | 0.02 | 0.42 | 0.26 | 92 | 1009.0 |
| 20260903210948 | 55 | 215 | 2.0 | 5.0 | 0.02 | 0.44 | 0.26 | 92 | 1008.9 |
| 20260903210448 | 55 | 229 | 0.0 | 7.0 | 0.03 | 0.44 | 0.26 | 92 | 1008.9 |
| 20260903205948 | 55 | 261 | 0.0 | 7.0 | 0.04 | 0.44 | 0.26 | 91 | 1008.9 |
| 20260903204947 | 56 | 360 | 4.0 | 7.0 | 0.05 | 0.44 | 0.25 | 93 | 1009.2 |
| 20260903204447 | 56 | 360 | 2.0 | 6.0 | 0.06 | 0.45 | 0.25 | 93 | 1009.2 |
| 20260903203947 | 56 | 204 | 1.0 | 6.0 | 0.07 | 0.45 | 0.25 | 93 | 1009.1 |
| 20260903203448 | 56 | 188 | 2.0 | 5.0 | 0.07 | 0.46 | 0.25 | 94 | 1009.1 |
| 20260903202948 | 56 | 223 | 0.0 | 4.0 | 0.07 | 0.47 | 0.25 | 94 | 1009.1 |
| 20260903202447 | 56 | 230 | 1.0 | 4.0 | 0.08 | 0.48 | 0.25 | 94 | 1009.2 |
| 20260903201947 | 56 | 215 | 1.0 | 5.0 | 0.07 | 0.48 | 0.24 | 93 | 1009.2 |
| 20260903201448 | 56 | 240 | 3.0 | 5.0 | 0.08 | 0.48 | 0.24 | 93 | 1009.2 |
| 20260903195947 | 56 | 153 | 1.0 | 10.0 | 0.07 | 0.48 | 0.22 | 91 | 1009.3 |
| 20260903195448 | 57 | 266 | 0.0 | 7.0 | 0.05 | 0.46 | 0.20 | 91 | 1009.3 |
| 20260903194948 | 57 | 258 | 1.0 | 8.0 | 0.05 | 0.47 | 0.20 | 91 | 1009.3 |
| 20260903194447 | 57 | 201 | 5.0 | 8.0 | 0.04 | 0.46 | 0.19 | 92 | 1009.3 |
| 20260903193947 | 57 | 210 | 0.0 | 7.0 | 0.03 | 0.46 | 0.18 | 91 | 1009.2 |
| 20260903193447 | 58 | 186 | 5.0 | 5.0 | 0.03 | 0.46 | 0.18 | 92 | 1009.2 |
| 20260903192947 | 58 | 202 | 1.0 | 5.0 | 0.03 | 0.47 | 0.18 | 92 | 1009.2 |
| 20260903192447 | 58 | 201 | 3.0 | 4.0 | 0.02 | 0.47 | 0.17 | 91 | 1009.3 |
| 20260903191947 | 58 | 186 | 1.0 | 3.0 | 0.02 | 0.47 | 0.17 | 91 | 1009.3 |
| 20260903191447 | 58 | 262 | 1.0 | 4.0 | 0.01 | 0.47 | 0.16 | 90 | 1009.3 |
| 20260903190947 | 58 | 178 | 0.0 | 4.0 | 0.01 | 0.49 | 0.16 | 88 | 1009.3 |
| 20260903190447 | 58 | 360 | 0.0 | 3.0 | 0.00 | 0.50 | 0.15 | 86 | 1009.3 |
| 20260903185947 | 59 | 360 | 0.0 | 6.0 | 0.00 | 0.51 | 0.15 | 87 | 1009.3 |
| 20260903185447 | 59 | 360 | 0.0 | 9.0 | 0.00 | 0.52 | 0.15 | 88 | 1009.4 |
| 20260903184947 | 59 | 360 | 5.0 | 9.0 | 0.00 | 0.52 | 0.15 | 88 | 1009.4 |
| 20260903184447 | 59 | 360 | 1.0 | 10.0 | 0.00 | 0.53 | 0.15 | 89 | 1009.4 |
| 20260903183947 | 59 | 360 | 9.0 | 13.0 | 0.00 | 0.53 | 0.15 | 90 | 1009.1 |
| 20260903183447 | 58 | 360 | 3.0 | 13.0 | 0.00 | 0.55 | 0.15 | 90 | 1009.0 |
| 20260903182947 | 58 | 360 | 3.0 | 12.0 | 0.00 | 0.56 | 0.15 | 90 | 1009.0 |
| 20260903182447 | 58 | 360 | 11.0 | 11.0 | 0.00 | 0.57 | 0.15 | 92 | 1009.1 |
| 20260903181446 | 58 | 360 | 5.0 | 9.0 | 0.00 | 0.58 | 0.15 | 92 | 1009.1 |
| 20260903180946 | 58 | 360 | 3.0 | 9.0 | 0.00 | 0.59 | 0.15 | 92 | 1009.0 |
| 20260903180446 | 58 | 360 | 3.0 | 11.0 | 0.00 | 0.60 | 0.15 | 92 | 1009.0 |
| 20260903175946 | 58 | 360 | 5.0 | 11.0 | 0.00 | 0.61 | 0.15 | 93 | 1009.0 |
| 20260903175446 | 58 | 360 | 3.0 | 10.0 | 0.00 | 0.63 | 0.15 | 93 | 1009.1 |
| 20260903174446 | 58 | 360 | 3.0 | 10.0 | 0.00 | 0.67 | 0.15 | 94 | 1009.1 |
| 20260903173946 | 58 | 360 | 5.0 | 10.0 | 0.00 | 0.69 | 0.15 | 95 | 1009.0 |
| 20260903172946 | 57 | 360 | 4.0 | 9.0 | 0.00 | 0.71 | 0.15 | 95 | 1008.9 |
| 20260903172446 | 57 | 360 | 9.0 | 9.0 | 0.00 | 0.72 | 0.15 | 95 | 1009.1 |
| 20260903171946 | 57 | 360 | 3.0 | 10.0 | 0.00 | 0.72 | 0.15 | 95 | 1009.1 |
| 20260903170946 | 57 | 360 | 7.0 | 11.0 | 0.00 | 0.72 | 0.15 | 95 | 1009.0 |
| 20260903170446 | 57 | 360 | 4.0 | 11.0 | 0.00 | 0.73 | 0.15 | 95 | 1009.0 |
| 20260903164946 | 57 | 360 | 2.0 | 7.0 | 0.00 | 0.75 | 0.15 | 95 | 1009.2 |
| 20260903164446 | 57 | 360 | 4.0 | 8.0 | 0.00 | 0.75 | 0.15 | 95 | 1009.2 |
| 20260903163945 | 57 | 360 | 5.0 | 8.0 | 0.00 | 0.76 | 0.15 | 96 | 1009.2 |
| 20260903162946 | 57 | 144 | 2.0 | 6.0 | 0.00 | 0.77 | 0.15 | 95 | 1009.2 |
| 20260903161945 | 57 | 190 | 2.0 | 8.0 | 0.00 | 0.78 | 0.15 | 95 | 1009.3 |
| 20260903161445 | 57 | 360 | 3.0 | 5.0 | 0.00 | 0.79 | 0.15 | 96 | 1009.3 |
| 20260903160945 | 57 | 360 | 1.0 | 7.0 | 0.00 | 0.79 | 0.15 | 95 | 1009.4 |
| 20260903160445 | 57 | 360 | 1.0 | 9.0 | 0.00 | 0.80 | 0.15 | 96 | 1009.4 |
| 20260903155945 | 57 | 360 | 2.0 | 9.0 | 0.00 | 0.80 | 0.15 | 96 | 1009.4 |
| 20260903155445 | 57 | 360 | 6.0 | 8.0 | 0.00 | 0.80 | 0.15 | 96 | 1009.3 |
| 20260903154945 | 57 | 360 | 5.0 | 8.0 | 0.00 | 0.80 | 0.15 | 98 | 1009.3 |
| 20260903154445 | 56 | 360 | 5.0 | 10.0 | 0.00 | 0.80 | 0.15 | 99 | 1009.2 |
| 20260903153945 | 56 | 360 | 3.0 | 10.0 | 0.00 | 0.80 | 0.15 | 100 | 1009.3 |
| 20260903151945 | 55 | 360 | 3.0 | 8.0 | 0.00 | 0.80 | 0.15 | 100 | 1009.3 |
| 20260903150445 | 55 | 360 | 5.0 | 5.0 | 0.00 | 0.80 | 0.15 | 100 | 1009.2 |
| 20260903145945 | 56 | 360 | 5.0 | 6.0 | 0.00 | 0.80 | 0.15 | 100 | 1009.2 |
| 20260903145444 | 55 | 360 | 3.0 | 6.0 | 0.01 | 0.80 | 0.15 | 100 | 1009.3 |
| 20260903144944 | 55 | 360 | 2.0 | 5.0 | 0.01 | 0.80 | 0.15 | 100 | 1009.3 |
| 20260903143945 | 55 | 223 | 0.0 | 0.0 | 0.02 | 0.80 | 0.15 | 100 | 1009.1 |
| 20260903143445 | 55 | 214 | 0.0 | 0.0 | 0.02 | 0.80 | 0.15 | 100 | 1009.1 |
| 20260903142944 | 55 | 214 | 0.0 | 7.0 | 0.03 | 0.80 | 0.15 | 100 | 1009.1 |
| 20260903142444 | 55 | 214 | 0.0 | 7.0 | 0.03 | 0.80 | 0.15 | 100 | 1009.3 |
| 20260903141944 | 55 | 203 | 4.0 | 7.0 | 0.03 | 0.80 | 0.15 | 100 | 1009.3 |
| 20260903140944 | 55 | 175 | 3.0 | 7.0 | 0.03 | 0.80 | 0.15 | 100 | 1009.0 |
| 20260903135944 | 55 | 166 | 1.0 | 7.0 | 0.03 | 0.80 | 0.15 | 100 | 1009.0 |
| 20260903134444 | 55 | 202 | 3.0 | 6.0 | 0.08 | 0.79 | 0.14 | 100 | 1008.8 |
| 20260903133944 | 55 | 197 | 3.0 | 7.0 | 0.08 | 0.78 | 0.13 | 100 | 1008.8 |
| 20260903133444 | 55 | 184 | 5.0 | 8.0 | 0.09 | 0.78 | 0.13 | 100 | 1008.8 |
| 20260903132944 | 55 | 177 | 4.0 | 8.0 | 0.09 | 0.77 | 0.12 | 100 | 1008.8 |
| 20260903131943 | 55 | 203 | 4.0 | 7.0 | 0.10 | 0.77 | 0.12 | 100 | 1008.7 |
| 20260903131443 | 55 | 175 | 3.0 | 6.0 | 0.11 | 0.77 | 0.12 | 100 | 1008.7 |
| 20260903130943 | 55 | 179 | 2.0 | 5.0 | 0.12 | 0.77 | 0.12 | 100 | 1008.9 |
| 20260903130443 | 55 | 219 | 4.0 | 5.0 | 0.12 | 0.77 | 0.12 | 100 | 1008.9 |
| 20260903125944 | 55 | 184 | 0.0 | 5.0 | 0.12 | 0.77 | 0.12 | 100 | 1008.9 |
| 20260903125444 | 55 | 178 | 1.0 | 4.0 | 0.10 | 0.75 | 0.10 | 100 | 1008.9 |
| 20260903124443 | 55 | 213 | 1.0 | 2.0 | 0.06 | 0.71 | 0.06 | 100 | 1008.9 |
| 20260903123944 | 55 | 214 | 0.0 | 1.0 | 0.05 | 0.70 | 0.05 | 100 | 1009.0 |
| 20260903123443 | 55 | 214 | 0.0 | 0.0 | 0.04 | 0.69 | 0.04 | 100 | 1009.0 |
| 20260903122944 | 55 | 214 | 0.0 | 1.0 | 0.03 | 0.68 | 0.03 | 100 | 1009.0 |
| 20260903122443 | 55 | 214 | 0.0 | 1.0 | 0.03 | 0.68 | 0.03 | 100 | 1009.0 |
| 20260903121943 | 55 | 214 | 0.0 | 2.0 | 0.02 | 0.67 | 0.02 | 100 | 1009.0 |
| 20260903121443 | 55 | 214 | 1.0 | 3.0 | 0.01 | 0.66 | 0.01 | 100 | 1009.0 |
| 20260903120943 | 55 | 212 | 2.0 | 5.0 | 0.00 | 0.65 | 0.00 | 100 | 1009.0 |
| 20260903120513 | 55 | 219 | 1.0 | 7.0 | 0.00 | 0.65 | 0.00 | 100 | 1009.0 |
| 20260903120013 | 55 | 209 | 4.0 | 7.0 | 0.00 | 0.65 | 0.00 | 100 | 1009.0 |
| 20260903115513 | 55 | 234 | 3.0 | 6.0 | 0.00 | 0.65 | 0.00 | 100 | 1008.9 |
| 20260903114443 | 55 | 201 | 3.0 | 7.0 | 0.00 | 0.65 | 0.00 | 100 | 1008.9 |
| 20260903113942 | 55 | 278 | 2.0 | 7.0 | 0.00 | 0.65 | 0.00 | 100 | 1008.9 |
| 20260903113442 | 55 | 201 | 3.0 | 6.0 | 0.00 | 0.65 | 0.00 | 100 | 1008.9 |
| 20260903112942 | 55 | 212 | 2.0 | 6.0 | 0.00 | 0.65 | 0.00 | 100 | 1008.9 |
| 20260903112443 | 55 | 194 | 2.0 | 6.0 | 0.00 | 0.65 | 0.00 | 100 | 1008.9 |
| 20260903111512 | 54 | 195 | 3.0 | 6.0 | 0.00 | 0.65 | 0.00 | 100 | 1008.8 |
| 20260903110942 | 54 | 216 | 3.0 | 5.0 | 0.00 | 0.65 | 0.00 | 100 | 1008.8 |
| 20260903110442 | 54 | 225 | 4.0 | 6.0 | 0.00 | 0.65 | 0.00 | 100 | 1008.8 |
| 20260903105942 | 54 | 208 | 1.0 | 7.0 | 0.00 | 0.65 | 0.00 | 100 | 1008.8 |
| 20260903104942 | 54 | 201 | 2.0 | 7.0 | 0.00 | 0.65 | 0.00 | 100 | 1008.9 |
| 20260903103441 | 54 | 217 | 3.0 | 7.0 | 0.00 | 0.65 | 0.00 | 100 | 1009.0 |
| 20260903102941 | 54 | 202 | 3.0 | 6.0 | 0.00 | 0.65 | 0.00 | 100 | 1009.0 |
| 20260903102442 | 54 | 212 | 2.0 | 4.0 | 0.00 | 0.65 | 0.00 | 100 | 1008.9 |
| 20260903101941 | 54 | 223 | 0.0 | 3.0 | 0.00 | 0.65 | 0.00 | 100 | 1008.9 |
| 20260903101441 | 54 | 223 | 0.0 | 3.0 | 0.00 | 0.65 | 0.00 | 100 | 1008.9 |
| 20260903100941 | 54 | 222 | 1.0 | 4.0 | 0.00 | 0.65 | 0.00 | 100 | 1009.0 |
| 20260903100442 | 54 | 214 | 1.0 | 4.0 | 0.00 | 0.65 | 0.00 | 100 | 1009.0 |
| 20260903095941 | 54 | 219 | 0.0 | 3.0 | 0.00 | 0.65 | 0.00 | 99 | 1009.0 |
| 20260903094441 | 55 | 207 | 2.0 | 7.0 | 0.00 | 0.65 | 0.00 | 99 | 1009.1 |
| 20260903092941 | 55 | 202 | 1.0 | 7.0 | 0.00 | 0.65 | 0.00 | 99 | 1009.0 |
| 20260903092441 | 55 | 173 | 3.0 | 9.0 | 0.00 | 0.65 | 0.00 | 99 | 1009.0 |
| 20260903091441 | 55 | 209 | 4.0 | 7.0 | 0.00 | 0.65 | 0.00 | 98 | 1009.0 |
| 20260903090941 | 55 | 192 | 3.0 | 7.0 | 0.00 | 0.65 | 0.00 | 98 | 1009.1 |
| 20260903090440 | 55 | 222 | 5.0 | 7.0 | 0.00 | 0.65 | 0.00 | 98 | 1009.1 |
| 20260903085941 | 55 | 198 | 3.0 | 8.0 | 0.00 | 0.65 | 0.00 | 100 | 1009.1 |
| 20260903085441 | 55 | 188 | 2.0 | 9.0 | 0.00 | 0.65 | 0.00 | 98 | 1009.1 |
| 20260903084940 | 55 | 211 | 2.0 | 9.0 | 0.00 | 0.65 | 0.00 | 98 | 1009.1 |
| 20260903084441 | 55 | 190 | 2.0 | 7.0 | 0.00 | 0.65 | 0.00 | 98 | 1009.1 |
| 20260903083940 | 55 | 184 | 4.0 | 7.0 | 0.00 | 0.65 | 0.00 | 98 | 1009.3 |
| 20260903082940 | 55 | 197 | 3.0 | 8.0 | 0.00 | 0.65 | 0.00 | 98 | 1009.3 |
| 20260903082441 | 55 | 162 | 2.0 | 8.0 | 0.00 | 0.65 | 0.00 | 98 | 1009.3 |
| 20260903081941 | 55 | 178 | 1.0 | 7.0 | 0.00 | 0.65 | 0.00 | 98 | 1009.3 |
| 20260903081440 | 55 | 172 | 2.0 | 7.0 | 0.00 | 0.65 | 0.00 | 98 | 1009.3 |
| 20260903080940 | 55 | 199 | 4.0 | 7.0 | 0.00 | 0.65 | 0.00 | 98 | 1009.3 |
| 20260903080440 | 55 | 171 | 3.0 | 7.0 | 0.00 | 0.65 | 0.00 | 98 | 1009.3 |
| 20260903080010 | 55 | 136 | 5.0 | 7.0 | 0.00 | 0.65 | 0.00 | 98 | 1009.3 |
| 20260903075440 | 55 | 169 | 3.0 | 7.0 | 0.00 | 0.65 | 0.00 | 98 | 1009.3 |
| 20260903074940 | 55 | 202 | 3.0 | 8.0 | 0.00 | 0.65 | 0.00 | 98 | 1009.3 |
| 20260903073940 | 55 | 230 | 3.0 | 8.0 | 0.00 | 0.65 | 0.00 | 99 | 1009.3 |
| 20260903073440 | 55 | 221 | 7.0 | 8.0 | 0.00 | 0.65 | 0.00 | 100 | 1009.3 |
| 20260903072440 | 55 | 222 | 7.0 | 9.0 | 0.00 | 0.65 | 0.00 | 100 | 1009.3 |
| 20260903072010 | 56 | 189 | 4.0 | 9.0 | 0.00 | 0.65 | 0.00 | 100 | 1009.4 |
| 20260903071440 | 56 | 225 | 4.0 | 7.0 | 0.00 | 0.65 | 0.00 | 100 | 1009.4 |
| 20260903071010 | 56 | 186 | 5.0 | 8.0 | 0.01 | 0.65 | 0.00 | 100 | 1009.1 |
| 20260903070439 | 56 | 209 | 4.0 | 8.0 | 0.01 | 0.65 | 0.00 | 100 | 1009.1 |
| 20260903070010 | 56 | 205 | 7.0 | 7.0 | 0.01 | 0.65 | 0.00 | 100 | 1009.1 |
| 20260903065509 | 56 | 202 | 6.0 | 7.0 | 0.01 | 0.65 | 0.65 | 100 | 1009.1 |
| 20260903063940 | 56 | 194 | 5.0 | 6.0 | 0.01 | 0.65 | 0.65 | 100 | 1009.3 |
| 20260903063439 | 56 | 220 | 4.0 | 6.0 | 0.01 | 0.65 | 0.65 | 100 | 1009.3 |
| 20260903063009 | 56 | 220 | 3.0 | 6.0 | 0.01 | 0.65 | 0.65 | 100 | 1009.3 |
| 20260903062439 | 56 | 224 | 3.0 | 6.0 | 0.01 | 0.65 | 0.65 | 100 | 1009.3 |
| 20260903062009 | 56 | 216 | 3.0 | 6.0 | 0.01 | 0.65 | 0.65 | 100 | 1009.3 |
| 20260903061509 | 56 | 229 | 2.0 | 6.0 | 0.01 | 0.65 | 0.65 | 100 | 1009.3 |
| 20260903060939 | 56 | 181 | 2.0 | 6.0 | 0.00 | 0.64 | 0.64 | 99 | 1009.3 |
| 20260903055009 | 56 | 202 | 0.0 | 3.0 | 0.03 | 0.64 | 0.64 | 96 | 1009.3 |
| 20260903054509 | 56 | 212 | 1.0 | 4.0 | 0.03 | 0.64 | 0.64 | 96 | 1009.3 |
| 20260903054009 | 57 | 212 | 2.0 | 4.0 | 0.04 | 0.64 | 0.64 | 96 | 1009.5 |
| 20260903053509 | 57 | 213 | 0.0 | 3.0 | 0.05 | 0.64 | 0.64 | 96 | 1009.5 |
| 20260903052508 | 57 | 212 | 0.0 | 2.0 | 0.06 | 0.64 | 0.64 | 95 | 1009.4 |
| 20260903051509 | 57 | 211 | 0.0 | 4.0 | 0.06 | 0.64 | 0.64 | 95 | 1009.4 |
| 20260903051009 | 57 | 211 | 3.0 | 5.0 | 0.06 | 0.64 | 0.64 | 94 | 1009.3 |
| 20260903050438 | 57 | 206 | 4.0 | 8.0 | 0.05 | 0.63 | 0.63 | 94 | 1009.3 |
| 20260903050009 | 57 | 213 | 4.0 | 8.0 | 0.05 | 0.63 | 0.63 | 94 | 1009.3 |
| 20260903045509 | 57 | 196 | 3.0 | 7.0 | 0.04 | 0.62 | 0.62 | 94 | 1009.3 |
| 20260903045008 | 57 | 206 | 4.0 | 6.0 | 0.03 | 0.61 | 0.61 | 93 | 1009.3 |
| 20260903044008 | 57 | 205 | 6.0 | 7.0 | 0.02 | 0.60 | 0.60 | 92 | 1009.1 |
| 20260903043508 | 57 | 204 | 4.0 | 7.0 | 0.01 | 0.59 | 0.59 | 92 | 1009.1 |
| 20260903042508 | 57 | 215 | 6.0 | 6.0 | 0.00 | 0.58 | 0.58 | 92 | 1008.9 |
| 20260903042008 | 57 | 190 | 3.0 | 6.0 | 0.00 | 0.58 | 0.58 | 92 | 1008.9 |
| 20260903041438 | 57 | 215 | 6.0 | 6.0 | 0.00 | 0.58 | 0.58 | 92 | 1008.9 |
| 20260903040508 | 57 | 185 | 2.0 | 7.0 | 0.00 | 0.58 | 0.58 | 92 | 1008.7 |
| 20260903035508 | 57 | 205 | 5.0 | 5.0 | 0.00 | 0.58 | 0.58 | 92 | 1008.7 |
| 20260903035008 | 57 | 215 | 0.0 | 4.0 | 0.00 | 0.58 | 0.58 | 92 | 1008.7 |
| 20260903034508 | 57 | 182 | 3.0 | 4.0 | 0.00 | 0.58 | 0.58 | 92 | 1008.7 |
| 20260903033938 | 57 | 209 | 0.0 | 3.0 | 0.00 | 0.58 | 0.58 | 92 | 1008.4 |
| 20260903033508 | 57 | 205 | 0.0 | 3.0 | 0.00 | 0.58 | 0.58 | 92 | 1008.4 |
| 20260903033009 | 57 | 194 | 0.0 | 3.0 | 0.00 | 0.58 | 0.58 | 92 | 1008.4 |
| 20260903032509 | 57 | 218 | 1.0 | 3.0 | 0.00 | 0.58 | 0.58 | 91 | 1008.3 |
| 20260903032008 | 57 | 213 | 2.0 | 3.0 | 0.00 | 0.58 | 0.58 | 91 | 1008.3 |
| 20260903031509 | 58 | 233 | 0.0 | 3.0 | 0.00 | 0.58 | 0.58 | 90 | 1008.3 |
| 20260903031008 | 58 | 225 | 0.0 | 2.0 | 0.00 | 0.58 | 0.58 | 90 | 1008.3 |
| 20260903030009 | 58 | 225 | 0.0 | 0.0 | 0.00 | 0.58 | 0.58 | 90 | 1008.3 |
| 20260903025008 | 58 | 225 | 0.0 | 0.0 | 0.00 | 0.58 | 0.58 | 88 | 1008.1 |
| 20260903024508 | 58 | 225 | 0.0 | 0.0 | 0.00 | 0.58 | 0.58 | 87 | 1008.1 |
| 20260903024008 | 59 | 225 | 0.0 | 0.0 | 0.00 | 0.58 | 0.58 | 86 | 1008.2 |
| 20260903023439 | 59 | 225 | 0.0 | 0.0 | 0.00 | 0.58 | 0.58 | 86 | 1008.2 |
| 20260903022508 | 59 | 225 | 0.0 | 2.0 | 0.00 | 0.58 | 0.58 | 85 | 1008.1 |
| 20260903022008 | 59 | 224 | 0.0 | 2.0 | 0.00 | 0.58 | 0.58 | 85 | 1008.1 |
| 20260903021508 | 59 | 223 | 0.0 | 2.0 | 0.00 | 0.58 | 0.58 | 85 | 1008.1 |
| 20260903021008 | 60 | 215 | 1.0 | 5.0 | 0.00 | 0.58 | 0.58 | 85 | 1007.8 |
| 20260903020508 | 60 | 360 | 0.0 | 5.0 | 0.00 | 0.58 | 0.58 | 85 | 1007.8 |
| 20260903020008 | 60 | 360 | 2.0 | 3.0 | 0.00 | 0.58 | 0.58 | 85 | 1007.8 |
| 20260903015008 | 60 | 360 | 0.0 | 3.0 | 0.00 | 0.58 | 0.58 | 85 | 1007.8 |
| 20260903014508 | 60 | 360 | 0.0 | 4.0 | 0.00 | 0.58 | 0.58 | 85 | 1007.8 |
| 20260903014008 | 60 | 360 | 0.0 | 4.0 | 0.00 | 0.58 | 0.58 | 86 | 1007.7 |
| 20260903013438 | 60 | 360 | 0.0 | 4.0 | 0.00 | 0.58 | 0.58 | 87 | 1007.7 |
| 20260903012937 | 61 | 360 | 0.0 | 2.0 | 0.00 | 0.58 | 0.58 | 88 | 1007.7 |
| 20260903012508 | 61 | 360 | 0.0 | 2.0 | 0.00 | 0.58 | 0.58 | 89 | 1007.5 |
| 20260903011507 | 61 | 360 | 0.0 | 5.0 | 0.00 | 0.58 | 0.58 | 90 | 1007.5 |
| 20260903011007 | 61 | 360 | 0.0 | 5.0 | 0.01 | 0.58 | 0.58 | 90 | 1007.4 |
| 20260903010007 | 61 | 360 | 0.0 | 5.0 | 0.02 | 0.58 | 0.58 | 92 | 1007.4 |
| 20260903005507 | 61 | 360 | 1.0 | 5.0 | 0.02 | 0.58 | 0.58 | 93 | 1007.4 |
| 20260903005008 | 61 | 360 | 2.0 | 5.0 | 0.02 | 0.58 | 0.58 | 93 | 1007.4 |
| 20260903004507 | 61 | 360 | 0.0 | 4.0 | 0.02 | 0.58 | 0.58 | 94 | 1007.4 |
| 20260903004007 | 60 | 360 | 0.0 | 4.0 | 0.02 | 0.58 | 0.58 | 93 | 1007.4 |
| 20260903003507 | 60 | 360 | 0.0 | 2.0 | 0.02 | 0.58 | 0.58 | 93 | 1007.4 |
| 20260903002007 | 60 | 210 | 2.0 | 3.0 | 0.02 | 0.58 | 0.58 | 91 | 1007.3 |
| 20260903001508 | 60 | 53 | 0.0 | 1.0 | 0.02 | 0.58 | 0.58 | 90 | 1007.3 |
| 20260903001006 | 60 | 38 | 0.0 | 2.0 | 0.01 | 0.57 | 0.57 | 89 | 1007.2 |
| 20260903000007 | 60 | 360 | 0.0 | 2.0 | 0.00 | 0.56 | 0.56 | 89 | 1007.2 |
| 20260902235506 | 60 | 360 | 2.0 | 3.0 | 0.00 | 0.56 | 0.56 | 89 | 1007.0 |
| 20260902235006 | 60 | 360 | 2.0 | 4.0 | 0.00 | 0.56 | 0.56 | 90 | 1007.0 |
| 20260902234506 | 61 | 360 | 0.0 | 4.0 | 0.00 | 0.56 | 0.56 | 91 | 1007.0 |
| 20260902234006 | 61 | 360 | 1.0 | 4.0 | 0.00 | 0.56 | 0.56 | 93 | 1006.8 |
| 20260902233506 | 61 | 360 | 0.0 | 2.0 | 0.00 | 0.56 | 0.56 | 95 | 1006.8 |
| 20260902232506 | 61 | 360 | 1.0 | 3.0 | 0.00 | 0.56 | 0.56 | 97 | 1006.6 |
| 20260902232006 | 61 | 360 | 0.0 | 3.0 | 0.00 | 0.56 | 0.56 | 98 | 1006.6 |
| 20260902231507 | 61 | 360 | 0.0 | 2.0 | 0.00 | 0.56 | 0.56 | 96 | 1006.6 |
| 20260902231006 | 60 | 360 | 0.0 | 2.0 | 0.01 | 0.56 | 0.56 | 97 | 1006.7 |
| 20260902230506 | 60 | 360 | 0.0 | 3.0 | 0.01 | 0.56 | 0.56 | 96 | 1006.7 |
| 20260902230006 | 60 | 360 | 1.0 | 3.0 | 0.02 | 0.56 | 0.56 | 96 | 1006.7 |
| 20260902225506 | 60 | 360 | 0.0 | 4.0 | 0.04 | 0.56 | 0.56 | 98 | 1006.4 |
| 20260902225006 | 60 | 360 | 2.0 | 4.0 | 0.05 | 0.56 | 0.56 | 99 | 1006.4 |
| 20260902224505 | 60 | 360 | 3.0 | 4.0 | 0.05 | 0.56 | 0.56 | 100 | 1006.4 |
| 20260902224005 | 60 | 360 | 1.0 | 4.0 | 0.06 | 0.56 | 0.56 | 100 | 1006.4 |
| 20260902223505 | 59 | 360 | 2.0 | 4.0 | 0.07 | 0.56 | 0.56 | 99 | 1006.4 |
| 20260902221006 | 59 | 227 | 1.0 | 4.0 | 0.08 | 0.55 | 0.55 | 100 | 1006.3 |
| 20260902220505 | 59 | 219 | 4.0 | 5.0 | 0.08 | 0.55 | 0.55 | 100 | 1006.3 |